Wind_Speed
20 21 19 9 6 12 13 13 11 10 11 5 3 9 6 5 8 9 13 16 18 20 22 23 24 23 23 21 22 19 16 16 19 18 16 16 18 20 22 25 32 35 36 38
19 15 16 10 15 13 10 12 17 14 7 4 5 4 2 6 8 8 9 14 14 17 21 23 24 24 24 24 22 19 22 20 19 18 19 19 18 20 21 22 23 24 28 35
15 16 17 12 16 11 10 10 13 17 12 4 7 11 11 12 11 10 10 13 14 21 29 26 25 26 26 25 24 25 25 23 21 17 15 16 18 17 17 19 22 23 24 24
10 16 18 18 14 11 8 5 8 15 15 11 16 6 17 18 14 13 12 16 17 22 29 25 25 24 25 24 24 25 28 27 19 16 16 19 20 19 20 20 20 22 23 23
10 14 13 15 13 12 8 7 7 11 12 5 22 8 9 23 20 15 13 17 16 20 23 21 21 21 21 21 21 22 24 23 19 18 18 18 18 20 21 20 20 19 21 22
14 12 10 12 10 7 8 7 7 9 8 5 11 23 9 23 20 16 17 17 15 20 21 22 19 18 19 19 19 19 20 20 19 18 19 20 20 21 23 25 25 24 24 24
15 11 11 11 9 9 9 11 3 1 1 5 5 11 11 18 17 23 20 16 18 18 22 25 23 20 19 19 19 19 20 19 19 19 19 20 21 23 23 25 26 27 25 25
11 7 12 10 9 5 8 7 4 6 3 3 5 4 5 14 15 18 16 19 19 20 26 28 22 21 21 20 19 18 19 18 19 20 20 21 22 24 25 26 26 27 27 26
12 7 11 10 9 8 7 6 5 4 2 2 4 4 6 16 18 19 20 19 18 24 30 23 22 23 22 23 22 21 20 20 20 19 21 21 22 24 25 26 27 27 28 27
10 6 12 11 11 11 10 8 4 5 3 3 3 6 8 16 20 18 17 15 21 26 20 20 23 26 27 24 22 23 23 23 23 22 21 21 22 23 25 26 27 27 27 27
9 8 9 11 12 11 11 11 7 6 4 5 1 5 9 8 12 11 10 16 22 19 19 24 29 32 33 28 26 25 26 28 28 26 22 22 24 25 24 26 28 28 28 28
14 9 7 13 11 11 11 11 12 6 6 7 3 6 7 5 7 6 12 17 19 20 24 28 32 37 35 30 29 31 34 32 27 29 29 28 24 27 27 27 27 27 27 28
15 9 6 4 10 16 17 15 13 15 10 9 6 4 8 11 12 15 17 18 16 20 25 27 30 33 32 30 31 34 36 37 34 32 32 31 29 27 27 27 28 27 27 27
14 13 10 6 3 5 11 14 16 17 10 10 17 10 13 17 19 18 18 16 20 19 19 23 26 30 30 30 31 35 37 39 39 40 39 36 32 31 28 26 29 29 28 27
15 11 15 13 10 9 10 12 14 18 19 16 17 14 15 18 20 22 21 19 21 22 23 23 25 27 28 32 35 38 37 39 41 44 45 43 40 31 25 26 28 31 31 30
18 10 12 14 14 14 17 17 18 18 20 22 21 21 5 8 12 12 14 18 19 23 26 25 25 27 27 27 29 28 32 37 41 45 48 46 44 40 34 29 31 31 32 34
17 16 9 7 12 10 15 16 17 16 17 15 18 11 14 12 16 15 20 22 25 28 28 29 30 30 32 35 37 37 38 41 43 43 45 46 44 43 41 37 35 32 33 36
13 15 11 6 8 2 8 9 5 3 8 11 10 14 17 15 17 21 23 25 28 29 32 33 33 33 32 36 40 44 46 46 48 48 48 42 45 45 44 40 38 39 38 36
15 13 8 6 11 7 7 12 12 12 8 9 13 16 18 18 19 24 28 29 31 31 35 40 42 43 45 47 49 49 48 50 51 52 50 49 45 44 47 46 43 38 39 34
12 12 14 10 5 7 7 11 11 13 18 18 21 25 28 29 27 28 30 32 35 42 43 40 38 38 40 41 42 43 43 42 42 42 41 35 34 41 46 48 44 41 42 33
17 14 15 16 11 8 14 12 14 15 15 20 22 25 25 26 27 31 37 41 40 38 37 35 35 36 37 38 39 40 42 43 40 42 43 43 45 47 45 47 44 41 41 43
18 11 11 13 9 7 9 16 20 21 20 21 22 23 25 29 32 38 37 40 37 35 34 34 36 37 38 40 42 43 44 47 47 47 44 42 43 39 39 44 45 44 47 45
13 17 7 10 5 11 11 14 14 17 18 21 24 28 31 34 36 36 41 36 35 35 36 36 36 35 36 38 41 44 46 47 48 49 47 44 42 38 42 46 46 47 41 33
17 11 12 9 14 17 16 17 21 22 24 26 30 33 36 36 38 42 37 34 32 32 32 33 34 36 38 38 38 40 42 43 43 43 44 46 48 49 44 47 47 47 47 40
15 14 15 17 17 19 20 22 23 24 26 29 34 36 38 41 43 36 33 33 34 36 39 40 42 43 42 44 45 45 48 48 45 42 40 39 38 40 45 43 45 48 45 39
16 19 22 23 24 25 27 28 29 31 34 36 38 41 43 39 36 35 35 36 37 40 43 45 48 50 51 51 51 49 50 52 50 46 40 39 36 32 35 37 40 41 43 43
Wind_Direction
130 124 123 124 133 150 155 138 147 137 130 117 98 147 188 273 319 340 357 7 4 4 360 352 347 343 342 342 337 328 317 307 304 302 296 287 287 289 289 285 271 265 265 267
134 153 138 112 130 131 132 136 149 142 156 180 136 156 237 288 305 314 342 346 352 1 359 357 347 344 343 346 344 336 320 319 310 303 305 311 312 316 315 313 307 298 281 273
161 163 153 158 160 183 162 158 155 168 159 176 177 170 206 234 265 299 311 324 334 355 354 352 344 344 345 348 346 343 331 337 329 316 317 313 313 311 312 310 314 316 316 313
172 163 163 173 181 182 176 180 164 166 179 165 212 214 222 244 265 282 306 314 335 344 346 343 342 341 342 348 350 345 338 347 343 327 328 327 324 320 321 331 334 330 332 333
169 169 163 168 180 190 204 180 190 185 185 210 206 235 238 229 239 251 272 292 317 334 341 338 336 335 334 346 350 349 343 353 354 337 332 325 331 338 337 338 338 336 332 330
171 163 158 167 171 168 160 152 147 170 195 243 210 216 235 216 234 231 244 271 302 326 332 334 331 328 331 340 344 344 346 352 354 348 343 337 330 322 319 323 326 328 330 330
163 166 162 163 170 175 183 172 119 31 298 224 165 215 258 225 228 243 254 274 291 308 333 330 328 327 328 338 342 342 344 346 347 345 341 337 335 332 329 325 323 323 325 324
168 164 180 194 196 198 194 199 194 188 196 250 210 251 243 217 218 218 244 264 286 311 324 326 326 327 328 332 334 339 341 341 339 334 333 332 331 329 329 327 326 326 328 329
180 172 186 191 196 191 210 208 200 137 192 282 215 219 176 210 222 236 252 271 297 314 325 332 335 332 329 329 331 336 340 338 337 336 326 322 320 319 318 318 318 318 318 318
185 159 185 189 203 213 218 200 184 196 118 272 235 233 211 224 231 241 267 295 311 317 320 327 339 338 331 328 329 332 335 334 332 333 329 321 320 321 321 322 321 318 317 313
196 207 191 196 213 217 217 214 210 203 201 184 241 226 223 235 233 263 298 300 306 308 316 328 336 336 334 329 329 334 335 338 336 332 331 321 313 312 312 317 320 317 315 315
202 208 187 206 218 218 230 226 219 219 210 204 230 268 252 246 263 254 279 292 307 315 324 325 328 328 326 324 330 331 331 335 336 335 333 332 317 307 307 310 314 315 315 315
199 203 169 189 229 231 234 235 233 232 232 218 188 258 195 203 217 249 271 295 300 310 315 317 318 321 319 323 325 324 323 325 327 330 336 335 331 319 310 306 306 309 311 313
203 213 212 210 185 180 221 234 234 226 229 241 234 247 222 221 241 276 281 283 288 303 310 313 315 315 311 317 312 314 313 317 320 320 320 323 325 325 313 307 306 303 304 306
205 224 228 239 251 244 246 246 240 242 250 254 272 270 244 234 269 281 280 295 302 309 315 303 299 310 314 311 306 307 308 309 309 309 311 313 314 321 319 324 313 303 300 300
216 224 230 234 246 251 256 253 253 249 249 255 268 277 269 262 283 297 303 278 275 284 289 285 286 287 285 285 291 297 296 296 297 298 302 305 309 314 311 304 315 311 304 298
216 221 224 232 236 248 269 266 259 266 270 276 267 301 279 254 250 255 259 270 280 285 289 291 291 287 283 280 285 287 288 288 289 296 302 307 306 310 313 313 301 313 308 300
229 223 213 231 206 236 221 230 247 195 243 259 247 247 251 254 256 259 266 270 277 283 289 289 285 278 277 280 283 285 285 283 286 289 292 293 295 299 300 306 309 303 307 298
220 219 213 226 219 260 229 218 228 229 236 228 230 240 245 246 250 265 268 272 277 282 291 290 285 284 284 284 285 285 283 279 280 282 285 284 287 294 292 296 300 300 295 288
233 220 217 219 234 221 195 209 225 239 230 240 244 253 260 266 264 265 268 272 279 289 296 298 296 294 292 290 290 290 292 293 295 294 293 286 290 292 290 286 292 290 287 283
207 231 231 235 238 257 213 211 233 233 244 249 260 267 273 279 288 296 299 301 301 300 300 300 300 300 301 301 298 298 297 298 304 304 301 292 280 282 282 285 287 280 290 295
216 209 216 217 232 262 227 215 234 257 267 274 278 283 289 293 295 298 299 302 300 301 302 300 299 299 299 298 297 296 296 296 295 298 296 292 291 290 281 283 280 286 288 289
212 221 240 222 250 238 230 239 254 269 278 279 282 285 289 294 297 299 305 303 303 304 306 306 305 305 304 303 301 298 297 296 295 296 296 295 294 292 287 288 289 286 273 261
215 210 232 232 235 250 250 250 263 269 275 279 284 288 292 296 300 305 306 304 303 308 309 308 308 308 308 308 307 307 306 305 304 303 295 288 294 285 286 288 291 283 278 264
222 229 235 235 247 259 260 260 266 274 277 281 287 291 294 297 301 304 305 306 312 312 311 312 313 312 311 310 310 311 308 306 306 305 307 308 295 290 283 279 289 278 272 261
226 237 233 235 249 258 262 269 273 277 283 287 291 294 299 304 309 311 312 314 313 311 313 313 313 311 310 308 307 306 304 304 304 305 304 303 303 302 288 284 280 278 279 273
Height
3199 3201 3201 3202 3201 3203 3206 3209 3211 3214 3217 3219 3220 3219 3219 3219 3218 3217 3218 3217 3216 3214 3212 3209 3207 3206 3204 3202 3199 3197 3196 3193 3190 3188 3188 3186 3183 3181 3179 3177 3178 3179 3178 3178
3202 3202 3203 3204 3204 3205 3207 3208 3211 3215 3216 3218 3218 3218 3218 3219 3218 3218 3219 3217 3217 3216 3215 3213 3207 3205 3204 3202 3198 3194 3190 3189 3186 3184 3182 3180 3178 3177 3174 3172 3170 3170 3170 3170
3199 3202 3204 3207 3206 3207 3207 3209 3210 3212 3214 3216 3216 3218 3218 3218 3217 3218 3217 3216 3215 3214 3212 3210 3206 3204 3201 3199 3195 3190 3186 3186 3182 3180 3179 3178 3176 3175 3173 3171 3168 3166 3164 3164
3199 3201 3203 3207 3208 3209 3209 3209 3211 3211 3213 3215 3216 3218 3216 3215 3216 3215 3215 3213 3213 3212 3211 3209 3206 3203 3200 3197 3193 3189 3183 3182 3179 3176 3175 3173 3171 3169 3168 3167 3166 3163 3160 3159
3199 3200 3202 3205 3209 3210 3211 3211 3212 3213 3213 3214 3214 3216 3212 3213 3213 3214 3213 3211 3212 3211 3210 3208 3205 3202 3198 3195 3193 3189 3185 3181 3178 3175 3173 3171 3170 3167 3164 3163 3162 3161 3157 3155
3199 3202 3204 3204 3206 3208 3209 3209 3210 3211 3212 3212 3210 3212 3206 3205 3206 3209 3208 3208 3209 3209 3208 3206 3204 3200 3196 3194 3191 3188 3184 3181 3178 3174 3172 3169 3168 3166 3164 3161 3159 3157 3155 3152
3200 3202 3203 3205 3205 3207 3208 3208 3211 3214 3213 3210 3208 3209 3203 3203 3204 3205 3206 3207 3207 3207 3206 3204 3202 3199 3196 3193 3189 3186 3183 3180 3177 3174 3171 3168 3165 3162 3160 3158 3155 3153 3152 3149
3199 3203 3203 3204 3206 3206 3206 3207 3207 3212 3212 3208 3208 3206 3203 3203 3204 3206 3206 3206 3206 3205 3204 3201 3197 3195 3193 3191 3188 3185 3181 3178 3175 3173 3169 3166 3163 3159 3156 3153 3151 3148 3146 3145
3196 3198 3200 3202 3203 3206 3206 3206 3206 3206 3207 3207 3205 3204 3204 3203 3204 3205 3205 3205 3204 3202 3199 3196 3193 3191 3189 3186 3183 3181 3179 3176 3174 3170 3166 3162 3159 3157 3154 3152 3149 3146 3143 3141
3192 3195 3198 3199 3202 3203 3203 3205 3205 3206 3211 3212 3203 3201 3199 3201 3201 3202 3203 3203 3201 3199 3196 3193 3191 3188 3185 3182 3180 3177 3175 3172 3170 3167 3164 3160 3157 3154 3151 3148 3145 3142 3139 3136
3189 3192 3197 3197 3199 3199 3201 3201 3203 3204 3204 3204 3204 3198 3197 3197 3199 3200 3201 3200 3198 3196 3194 3190 3186 3183 3180 3178 3175 3173 3171 3168 3165 3162 3160 3157 3153 3150 3147 3144 3140 3137 3135 3131
3186 3190 3192 3194 3194 3197 3198 3198 3199 3200 3201 3201 3200 3196 3195 3196 3197 3197 3197 3195 3193 3191 3188 3186 3183 3180 3177 3174 3171 3168 3166 3164 3162 3158 3155 3152 3149 3146 3143 3140 3137 3134 3130 3127
3183 3186 3190 3192 3196 3193 3193 3194 3195 3196 3198 3197 3199 3196 3195 3197 3197 3194 3192 3191 3189 3187 3185 3183 3180 3177 3173 3170 3167 3164 3162 3159 3156 3154 3151 3148 3144 3141 3138 3136 3133 3129 3125 3122
3181 3182 3185 3185 3186 3187 3188 3190 3191 3192 3193 3192 3191 3192 3192 3193 3193 3191 3189 3188 3186 3184 3182 3179 3177 3174 3170 3167 3163 3160 3157 3154 3151 3148 3145 3144 3141 3137 3133 3130 3127 3124 3120 3116
3179 3180 3183 3183 3184 3185 3186 3187 3187 3187 3188 3188 3188 3187 3190 3190 3189 3188 3187 3185 3183 3181 3179 3176 3173 3170 3167 3163 3159 3156 3152 3149 3146 3142 3138 3136 3134 3132 3127 3123 3119 3116 3113 3109
3176 3177 3180 3181 3181 3181 3181 3182 3182 3182 3182 3182 3184 3183 3185 3186 3186 3185 3183 3179 3176 3174 3172 3169 3167 3164 3160 3157 3154 3150 3147 3143 3139 3134 3131 3128 3125 3123 3120 3116 3112 3108 3105 3102
3174 3175 3177 3179 3178 3179 3178 3175 3176 3177 3177 3179 3178 3181 3177 3178 3177 3177 3175 3173 3171 3168 3166 3164 3161 3158 3155 3151 3147 3143 3139 3135 3131 3126 3122 3118 3114 3111 3109 3108 3104 3100 3096 3092
3172 3173 3175 3175 3177 3178 3171 3171 3172 3173 3172 3172 3173 3171 3171 3172 3172 3171 3170 3169 3166 3163 3160 3158 3155 3151 3148 3145 3141 3137 3132 3127 3123 3118 3114 3110 3105 3101 3098 3096 3095 3091 3087 3084
3170 3170 3172 3173 3171 3169 3168 3169 3169 3169 3169 3167 3166 3167 3167 3168 3169 3168 3167 3165 3162 3159 3155 3150 3146 3142 3139 3135 3130 3125 3120 3117 3112 3107 3103 3099 3096 3092 3088 3086 3085 3082 3077 3074
3166 3166 3169 3170 3169 3165 3163 3165 3166 3167 3166 3164 3163 3163 3163 3164 3164 3164 3163 3160 3157 3153 3146 3140 3137 3133 3128 3123 3117 3112 3107 3103 3098 3094 3090 3087 3084 3081 3078 3075 3073 3070 3066 3064
3162 3163 3164 3166 3164 3160 3160 3162 3162 3164 3161 3157 3159 3159 3159 3159 3158 3155 3152 3150 3145 3141 3136 3131 3127 3122 3117 3113 3107 3103 3098 3093 3089 3083 3079 3076 3072 3069 3066 3063 3059 3057 3055 3052
3156 3159 3159 3161 3161 3158 3157 3157 3158 3156 3155 3155 3155 3156 3155 3153 3151 3149 3145 3141 3135 3130 3126 3122 3117 3112 3108 3103 3097 3092 3087 3082 3077 3072 3067 3062 3058 3055 3052 3049 3046 3044 3041 3039
3154 3155 3156 3157 3154 3152 3153 3153 3153 3152 3152 3152 3152 3151 3148 3146 3143 3140 3136 3132 3127 3122 3117 3112 3106 3101 3097 3092 3086 3080 3075 3069 3063 3059 3054 3049 3045 3042 3039 3035 3032 3030 3026 3023
3149 3150 3151 3151 3149 3147 3149 3150 3149 3149 3149 3148 3146 3143 3141 3138 3134 3130 3127 3124 3119 3114 3108 3103 3098 3093 3088 3083 3077 3071 3063 3057 3050 3045 3040 3035 3032 3028 3026 3022 3018 3016 3013 3011
3146 3147 3146 3145 3145 3144 3145 3145 3145 3143 3143 3141 3139 3136 3133 3130 3126 3123 3119 3114 3109 3103 3097 3093 3087 3082 3077 3070 3065 3059 3051 3044 3039 3034 3029 3023 3019 3015 3011 3007 3005 3002 3000 2996
3142 3142 3141 3141 3141 3143 3144 3143 3142 3140 3137 3133 3131 3129 3124 3120 3117 3113 3109 3105 3100 3094 3089 3083 3077 3071 3066 3059 3053 3048 3040 3031 3026 3021 3018 3013 3008 3004 3000 2997 2994 2992 2989 2987